Location: Trebic
(49.2170°N, 15.8830°E)
Time: 10:19:35
(UTC+02:00)

Transit 4A - Pass Details

Date: 30 July 2019
Orbit: 863 x 981 km, 66.8° (Epoch: 18 August)

Event Time Altitude Azimuth Distance (km) Brightness Sun altitude
Exits shadow 23:30:56 29° 131° (SE) 1,699 8.8 -19.4°
Maximum altitude 23:32:10 32° 110° (ESE) 1,629 8.8 -19.4°
Drops below altitude 10° 23:37:42 10° 51° (NE) 2,740 10.6 -19.8°
Sets 23:40:32 0° 41° (NE) 3,687 11.4 -19.9°
